map of LIS home
LIS - Airport
Location
City:  Lisbon, Lisboa, Portugal
Near (Alt.):Lisboa
Name:Aeroporto da Portela de Sacavem
ICAO:LPPT
IATA:LIS

Details
Type:Airport (Aerodrome, Airfield)
Use:Public/Civil, Military, International (customs port of entry)
Latitude:3846'53"N (38.781311)
Longitude:908'09"W (-9.135918)
Datum:WGS 1984
Elevation:374 ft (114 m)
Variation:2.35W (WMM2015 magnetic declination)
0.13 annual change
Runways:2
Longest:12484 × 148 ft (3805 × 45 m), paved

Time
Time Zone:UTC+0 (DST+1)
Local Time:

Weather
METAR:LPPT 201630Z 31005KT 280V350 CAVOK 16/09 Q1030
TAF:LPPT 201100Z 2012/2118 34012KT 9999 FEW020
BECMG 2020/2023 31005KT SCT012
BECMG 2103/2105 BKN003 PROB30 2105/2109 0300 FG VV001
BECMG 2109/2112 34010KT BKN020
BECMG 2116/2118 FEW018

Related Locations
Nearby:
Farthest:NPL: 12263 mi / 19735 km
New Plymouth, TKI, NZ

Find:

   beyond  
but within

Other Information
Maps:
NOTAMs:
Links:
Sources:

  
flag of Portugal
flag of Lisbon
  

Sectional Chart

Flight Planning
at skyvector.com

Satellite Image

Google Maps Satellite view

 

Copyright © 2004-2018 Karl L. Swartz. All rights reserved.
The Great Circle Mapper name and logo are trademarks of the Great Circle Mapper.
All other trademarks mentioned herein belong to their respective owners.
Please see credits for attibutions and further copyright information.

  Follow gcmap on Facebook Follow gcmap on Twitter Follow gcmap on Google+ GCmap on LinkedIn

hCard Microformat

Geo Microformat